sat.trackr.live / text

‹ back to catalog

FALCON EYE 2

NORAD 47226 · 2020-090A

PAYLOAD ACTIVE UNKNOWN

§ Identity

Operator
Country
UAE
Launch date
2020-12-02
Launch site
FRGUI
Launch vehicle
Mass (kg)
RCS (m²)

External: N2YO · Heavens-Above · Gunter

§ Orbital elements

Epoch: 2026-05-24T22:06:24.309216Z

Period
96.97 min
Inclination
97.8576°
Eccentricity
0.0001877
Mean motion
14.84946896 rev/d
Perigee alt
612.4 km
Apogee alt
615.1 km
Semi-major
6,991.9 km
B*
7.9410e-5
RAAN
219.9933°
Arg perigee
89.5035°
Mean anomaly
270.6394°
Rev number
29,678

§ Raw data

FALCON EYE 21 47226U 20090A   26144.92111469  .00000623  00000+0  79410-4 0  99972 47226  97.8576 219.9933 0001877  89.5035 270.6394 14.84946896296786

JSON: /api/v1/satellites/47226 · /tle

For live sub-satellite position, see the globe view (requires WebGL).

§ Visibility from observer

Set your observer location to see the next 7 days of passes ≥ 10°. The values pass through the URL so the page stays shareable.

No JS? Fill the form by hand. The geolocation button needs JavaScript.